Time,TemperatureF,DewpointF,PressureIn,WindDirection,WindDirectionDegrees,WindSpeedMPH,WindSpeedGustMPH,Humidity,HourlyPrecipIn,Conditions,Clouds,dailyrainin,SoftwareType,DateUTC
2013-03-26 00:01:00,36.0,20.0,32.04,North,355,10.0,11.0,53,0.00,,,0.00,weatherlink.com 1.10,2013-03-26 06:01:00,
2013-03-26 00:16:00,35.8,20.0,32.03,NNW,344,9.0,11.0,53,0.00,,,0.00,weatherlink.com 1.10,2013-03-26 06:16:00,
2013-03-26 00:31:00,36.1,21.0,32.02,NNW,338,8.0,10.0,54,0.00,,,0.00,weatherlink.com 1.10,2013-03-26 06:31:00,
2013-03-26 00:46:00,35.9,21.0,32.02,NNE,21,3.0,10.0,54,0.00,,,0.00,weatherlink.com 1.10,2013-03-26 06:46:00,
2013-03-26 01:01:00,35.0,21.0,32.02,ESE,118,0.0,4.0,56,0.00,,,0.00,weatherlink.com 1.10,2013-03-26 07:01:00,
2013-03-26 01:16:00,34.7,21.0,32.02,ESE,118,2.0,2.0,58,0.00,,,0.00,weatherlink.com 1.10,2013-03-26 07:16:00,
2013-03-26 01:31:00,34.8,21.0,32.02,ESE,118,0.0,1.0,57,0.00,,,0.00,weatherlink.com 1.10,2013-03-26 07:31:00,
2013-03-26 01:46:00,35.1,21.0,32.02,North,10,5.0,6.0,56,0.00,,,0.00,weatherlink.com 1.10,2013-03-26 07:46:00,
2013-03-26 02:01:00,35.2,21.0,32.01,NNE,24,0.0,4.0,57,0.00,,,0.00,weatherlink.com 1.10,2013-03-26 08:01:00,
2013-03-26 02:16:00,34.8,22.0,32.01,NNW,342,2.0,3.0,59,0.00,,,0.00,weatherlink.com 1.10,2013-03-26 08:16:00,
2013-03-26 02:31:00,34.3,20.0,32.01,NW,309,0.0,3.0,57,0.00,,,0.00,weatherlink.com 1.10,2013-03-26 08:31:00,
2013-03-26 02:46:00,34.2,20.0,32.01,NW,309,0.0,3.0,57,0.00,,,0.00,weatherlink.com 1.10,2013-03-26 08:46:00,
2013-03-26 03:01:00,34.0,20.0,32.01,NW,309,0.0,0.0,58,0.00,,,0.00,weatherlink.com 1.10,2013-03-26 09:01:00,
2013-03-26 03:16:00,33.4,21.0,32.00,SSW,212,1.0,2.0,60,0.00,,,0.00,weatherlink.com 1.10,2013-03-26 09:16:00,
2013-03-26 03:31:00,33.2,21.0,32.00,East,90,2.0,3.0,60,0.00,,,0.00,weatherlink.com 1.10,2013-03-26 09:31:00,
2013-03-26 03:47:00,33.7,22.0,32.00,ENE,66,3.0,3.0,62,0.00,,,0.00,weatherlink.com 1.10,2013-03-26 09:47:00,
2013-03-26 04:01:00,32.8,21.0,32.00,East,90,0.0,3.0,62,0.00,,,0.00,weatherlink.com 1.10,2013-03-26 10:01:00,
2013-03-26 04:17:00,32.0,21.0,32.00,ENE,77,2.0,4.0,63,0.00,,,0.00,weatherlink.com 1.10,2013-03-26 10:17:00,
2013-03-26 04:32:00,32.0,21.0,32.00,East,88,3.0,3.0,63,0.00,,,0.00,weatherlink.com 1.10,2013-03-26 10:32:00,
2013-03-26 04:47:00,32.1,20.0,32.00,East,99,3.0,5.0,62,0.00,,,0.00,weatherlink.com 1.10,2013-03-26 10:47:00,
2013-03-26 05:02:00,32.1,21.0,32.00,East,100,0.0,5.0,63,0.00,,,0.00,weatherlink.com 1.10,2013-03-26 11:02:00,
2013-03-26 05:17:00,31.9,20.0,31.99,ESE,109,4.0,5.0,63,0.00,,,0.00,weatherlink.com 1.10,2013-03-26 11:17:00,
2013-03-26 05:32:00,32.1,20.0,31.99,East,89,6.0,7.0,62,0.00,,,0.00,weatherlink.com 1.10,2013-03-26 11:32:00,
2013-03-26 05:47:00,32.0,21.0,31.99,ESE,105,7.0,7.0,63,0.00,,,0.00,weatherlink.com 1.10,2013-03-26 11:47:00,
2013-03-26 06:02:00,32.1,21.0,31.99,ESE,103,5.0,7.0,63,0.00,,,0.00,weatherlink.com 1.10,2013-03-26 12:02:00,
2013-03-26 06:17:00,32.0,20.0,32.00,East,91,3.0,8.0,62,0.00,,,0.00,weatherlink.com 1.10,2013-03-26 12:17:00,
2013-03-26 06:32:00,31.9,20.0,32.00,East,82,3.0,6.0,63,0.00,,,0.00,weatherlink.com 1.10,2013-03-26 12:32:00,
2013-03-26 06:47:00,32.0,20.0,32.00,East,91,7.0,8.0,61,0.00,,,0.00,weatherlink.com 1.10,2013-03-26 12:47:00,
2013-03-26 07:02:00,32.1,20.0,32.00,East,88,5.0,8.0,61,0.00,,,0.00,weatherlink.com 1.10,2013-03-26 13:02:00,
2013-03-26 07:17:00,32.2,20.0,31.99,East,87,8.0,8.0,61,0.00,,,0.00,weatherlink.com 1.10,2013-03-26 13:17:00,
2013-03-26 07:32:00,32.3,20.0,32.00,East,92,6.0,7.0,61,0.00,,,0.00,weatherlink.com 1.10,2013-03-26 13:32:00,
2013-03-26 07:47:00,32.6,20.0,32.00,East,96,5.0,7.0,61,0.00,,,0.00,weatherlink.com 1.10,2013-03-26 13:47:00,
2013-03-26 08:02:00,32.8,20.0,32.01,ESE,120,4.0,8.0,60,0.00,,,0.00,weatherlink.com 1.10,2013-03-26 14:02:00,
2013-03-26 08:17:00,32.7,20.0,32.01,ESE,105,3.0,5.0,60,0.00,,,0.00,weatherlink.com 1.10,2013-03-26 14:17:00,
2013-03-26 08:32:00,33.1,21.0,32.01,ESE,105,3.0,5.0,61,0.00,,,0.00,weatherlink.com 1.10,2013-03-26 14:32:00,
2013-03-26 08:47:00,33.2,21.0,32.01,ESE,113,7.0,8.0,60,0.00,,,0.00,weatherlink.com 1.10,2013-03-26 14:47:00,
2013-03-26 09:02:00,33.5,21.0,32.01,SE,127,5.0,8.0,60,0.00,,,0.00,weatherlink.com 1.10,2013-03-26 15:02:00,
2013-03-26 09:17:00,33.7,22.0,32.01,ESE,118,4.0,5.0,62,0.00,,,0.00,weatherlink.com 1.10,2013-03-26 15:17:00,
2013-03-26 09:32:00,33.9,22.0,32.01,ESE,122,7.0,8.0,62,0.00,,,0.00,weatherlink.com 1.10,2013-03-26 15:32:00,
2013-03-26 09:46:00,-999.0,-99.9,32.01,North,-999,-999.0,-999.0,-999,0.00,,,0.00,weatherlink.com 1.10,2013-03-26 15:46:00,
2013-03-26 10:02:00,34.6,25.0,32.00,ESE,116,5.0,8.0,67,0.00,,,0.00,weatherlink.com 1.10,2013-03-26 16:02:00,
2013-03-26 10:17:00,35.2,24.0,32.00,SE,128,8.0,10.0,65,0.00,,,0.00,weatherlink.com 1.10,2013-03-26 16:17:00,
2013-03-26 10:32:00,35.8,25.0,32.00,SE,137,9.0,11.0,66,0.00,,,0.00,weatherlink.com 1.10,2013-03-26 16:32:00,
2013-03-26 10:47:00,36.9,26.0,32.00,ESE,123,5.0,10.0,65,0.00,,,0.00,weatherlink.com 1.10,2013-03-26 16:47:00,
2013-03-26 11:02:00,37.0,26.0,32.00,SE,146,6.0,10.0,65,0.00,,,0.00,weatherlink.com 1.10,2013-03-26 17:02:00,
2013-03-26 11:17:00,38.1,26.0,31.99,SE,141,9.0,10.0,63,0.00,,,0.00,weatherlink.com 1.10,2013-03-26 17:17:00,
2013-03-26 11:33:00,38.9,26.0,31.98,ESE,121,7.0,12.0,60,0.00,,,0.00,weatherlink.com 1.10,2013-03-26 17:33:00,
2013-03-26 11:48:00,38.7,26.0,31.98,SSE,154,4.0,12.0,60,0.00,,,0.00,weatherlink.com 1.10,2013-03-26 17:48:00,
2013-03-26 12:03:00,39.4,26.0,31.98,ESE,118,0.0,10.0,59,0.00,,,0.00,weatherlink.com 1.10,2013-03-26 18:03:00,
2013-03-26 12:18:00,40.6,28.0,31.97,South,174,3.0,13.0,61,0.00,,,0.00,weatherlink.com 1.10,2013-03-26 18:18:00,
2013-03-26 12:33:00,41.3,28.0,31.96,South,173,7.0,9.0,59,0.00,,,0.00,weatherlink.com 1.10,2013-03-26 18:33:00,
2013-03-26 12:48:00,41.8,27.0,31.96,SSE,168,4.0,10.0,55,0.00,,,0.00,weatherlink.com 1.10,2013-03-26 18:48:00,
2013-03-26 13:03:00,42.7,25.0,31.95,SSE,153,5.0,10.0,49,0.00,,,0.00,weatherlink.com 1.10,2013-03-26 19:03:00,
2013-03-26 13:18:00,43.2,27.0,31.95,SE,142,10.0,10.0,53,0.00,,,0.00,weatherlink.com 1.10,2013-03-26 19:18:00,
2013-03-26 13:33:00,44.4,24.0,31.94,South,172,2.0,10.0,45,0.00,,,0.00,weatherlink.com 1.10,2013-03-26 19:33:00,
2013-03-26 13:48:00,45.0,26.0,31.94,South,190,7.0,9.0,47,0.00,,,0.00,weatherlink.com 1.10,2013-03-26 19:48:00,
2013-03-26 14:03:00,44.1,24.0,31.94,SSW,205,4.0,9.0,46,0.00,,,0.00,weatherlink.com 1.10,2013-03-26 20:03:00,
2013-03-26 14:18:00,45.1,24.0,31.93,SSE,149,4.0,8.0,44,0.00,,,0.00,weatherlink.com 1.10,2013-03-26 20:18:00,
2013-03-26 14:48:00,46.7,26.0,31.91,West,259,3.0,10.0,44,0.00,,,0.00,weatherlink.com 1.10,2013-03-26 20:48:00,
2013-03-26 15:03:00,45.6,24.0,31.91,WSW,248,3.0,10.0,43,0.00,,,0.00,weatherlink.com 1.10,2013-03-26 21:03:00,
2013-03-26 15:18:00,46.1,23.0,31.91,WSW,237,1.0,5.0,41,0.00,,,0.00,weatherlink.com 1.10,2013-03-26 21:18:00,
2013-03-26 15:33:00,45.7,24.0,31.90,WSW,250,10.0,13.0,42,0.00,,,0.00,weatherlink.com 1.10,2013-03-26 21:33:00,
2013-03-26 15:48:00,45.6,24.0,31.90,East,92,7.0,13.0,42,0.00,,,0.00,weatherlink.com 1.10,2013-03-26 21:48:00,
2013-03-26 16:03:00,46.3,25.0,31.89,SW,234,7.0,12.0,44,0.00,,,0.00,weatherlink.com 1.10,2013-03-26 22:03:00,
2013-03-26 16:18:00,44.4,24.0,31.89,West,274,7.0,14.0,44,0.00,,,0.00,weatherlink.com 1.10,2013-03-26 22:18:00,
2013-03-26 16:33:00,44.9,24.0,31.89,NW,311,3.0,9.0,44,0.00,,,0.00,weatherlink.com 1.10,2013-03-26 22:33:00,
2013-03-26 16:48:00,47.0,24.0,31.89,West,273,7.0,12.0,40,0.00,,,0.00,weatherlink.com 1.10,2013-03-26 22:48:00,
2013-03-26 17:03:00,47.1,24.0,31.89,West,260,7.0,7.0,41,0.00,,,0.00,weatherlink.com 1.10,2013-03-26 23:03:00,
2013-03-26 17:18:00,47.3,25.0,31.88,West,261,4.0,16.0,42,0.00,,,0.00,weatherlink.com 1.10,2013-03-26 23:18:00,
2013-03-26 17:33:00,46.6,23.0,31.88,WSW,257,3.0,14.0,40,0.00,,,0.00,weatherlink.com 1.10,2013-03-26 23:33:00,
2013-03-26 17:48:00,48.0,25.0,31.88,SW,217,6.0,8.0,40,0.00,,,0.00,weatherlink.com 1.10,2013-03-26 23:48:00,
2013-03-26 18:03:00,47.7,23.0,31.88,SW,230,2.0,6.0,38,0.00,,,0.00,weatherlink.com 1.10,2013-03-27 00:03:00,
2013-03-26 18:18:00,46.0,24.0,31.87,WSW,248,5.0,5.0,43,0.00,,,0.00,weatherlink.com 1.10,2013-03-27 00:18:00,
2013-03-26 18:33:00,45.1,24.0,31.88,SW,216,0.0,3.0,43,0.00,,,0.00,weatherlink.com 1.10,2013-03-27 00:33:00,
2013-03-26 18:48:00,44.6,24.0,31.88,West,279,7.0,7.0,45,0.00,,,0.00,weatherlink.com 1.10,2013-03-27 00:48:00,
2013-03-26 19:03:00,44.1,25.0,31.88,West,273,3.0,6.0,47,0.00,,,0.00,weatherlink.com 1.10,2013-03-27 01:03:00,
2013-03-26 19:19:00,44.3,24.0,31.88,NW,308,3.0,8.0,45,0.00,,,0.00,weatherlink.com 1.10,2013-03-27 01:19:00,
2013-03-26 19:34:00,44.4,24.0,31.88,WNW,302,3.0,5.0,44,0.00,,,0.00,weatherlink.com 1.10,2013-03-27 01:34:00,
2013-03-26 19:49:00,43.6,23.0,31.89,NW,323,3.0,5.0,45,0.00,,,0.00,weatherlink.com 1.10,2013-03-27 01:49:00,
2013-03-26 20:04:00,43.4,24.0,31.88,NNW,346,7.0,8.0,46,0.00,,,0.00,weatherlink.com 1.10,2013-03-27 02:04:00,
2013-03-26 20:19:00,43.1,23.0,31.89,NNW,331,7.0,9.0,45,0.00,,,0.00,weatherlink.com 1.10,2013-03-27 02:19:00,
2013-03-26 20:34:00,43.1,22.0,31.89,NW,309,9.0,12.0,44,0.00,,,0.00,weatherlink.com 1.10,2013-03-27 02:34:00,
2013-03-26 20:49:00,42.9,23.0,31.90,NW,325,11.0,12.0,45,0.00,,,0.00,weatherlink.com 1.10,2013-03-27 02:49:00,
2013-03-26 21:04:00,43.0,22.0,31.90,NW,317,11.0,11.0,44,0.00,,,0.00,weatherlink.com 1.10,2013-03-27 03:04:00,
2013-03-26 21:19:00,42.8,23.0,31.90,NW,313,8.0,12.0,45,0.00,,,0.00,weatherlink.com 1.10,2013-03-27 03:19:00,
2013-03-26 21:34:00,42.5,23.0,31.91,NNW,329,12.0,14.0,47,0.00,,,0.00,weatherlink.com 1.10,2013-03-27 03:34:00,
2013-03-26 21:49:00,42.3,24.0,31.91,NW,306,10.0,14.0,48,0.00,,,0.00,weatherlink.com 1.10,2013-03-27 03:49:00,
2013-03-26 22:04:00,42.1,24.0,31.91,NNW,331,11.0,13.0,48,0.00,,,0.00,weatherlink.com 1.10,2013-03-27 04:04:00,
2013-03-26 22:19:00,41.8,24.0,31.91,NNW,327,10.0,13.0,49,0.00,,,0.00,weatherlink.com 1.10,2013-03-27 04:19:00,
2013-03-26 22:34:00,41.3,24.0,31.91,NW,321,12.0,14.0,50,0.00,,,0.00,weatherlink.com 1.10,2013-03-27 04:34:00,
2013-03-26 22:49:00,41.1,24.0,31.91,NW,320,11.0,13.0,52,0.00,,,0.00,weatherlink.com 1.10,2013-03-27 04:49:00,
2013-03-26 23:04:00,41.1,24.0,31.91,NW,316,10.0,12.0,50,0.00,,,0.00,weatherlink.com 1.10,2013-03-27 05:04:00,
2013-03-26 23:19:00,41.7,23.0,31.92,NW,318,10.0,11.0,48,0.00,,,0.00,weatherlink.com 1.10,2013-03-27 05:19:00,
2013-03-26 23:34:00,41.7,23.0,31.92,NW,325,8.0,11.0,48,0.00,,,0.00,weatherlink.com 1.10,2013-03-27 05:34:00,
2013-03-26 23:49:00,41.4,23.0,31.92,NW,320,9.0,12.0,48,0.00,,,0.00,weatherlink.com 1.10,2013-03-27 05:49:00,